Location: Newark
(48.8604°N, 2.3376°E)
Time: 08:01:56
(UTC+00:00)

Envisat - Pass Details

Date: 29 September 2021
Orbit: 764 x 766 km, 98.2° (Epoch: 22 October)

Event Time Altitude Azimuth Distance (km) Brightness Sun altitude
Rises 04:46:49 0° 17° (NNE) 3,244 6.6 -10.8°
Reaches altitude 10° 04:49:11 10° 22° (NNE) 2,313 5.9 -10.4°
Maximum altitude 04:54:12 56° 100° (E) 911 3.8 -9.6°
Drops below altitude 10° 04:59:10 10° 179° (S) 2,295 5.4 -8.8°
Sets 05:01:30 0° 183° (S) 3,216 6.1 -8.4°
